This is the latest recevied weather packets stored in our database for station/object WA1NHP. If no packets are shown the sender has not sent any weather packets the latest 10 day(s).
| Time | Temp. | Humidity | Pressure | Rain* | Wind** | Luminosity | Snow |
|---|---|---|---|---|---|---|---|
| 1788183843 | 17.78° C | 79% | 1023.9 hPa | 0 mm | - | 63 W/m² | - |
| 1788183244 | 17.78° C | 82% | 1023.9 hPa | 0 mm | - | 69 W/m² | - |
| 1788182644 | 17.22° C | 83% | 1023.9 hPa | 0 mm | - | 88 W/m² | - |
| 1788182043 | 16.67° C | 87% | 1023.9 hPa | 0 mm | - | 56 W/m² | - |
| 1788181444 | 16.11° C | 92% | 1023.9 hPa | 0 mm | - | 53 W/m² | - |
| 1788180845 | 15.56° C | 97% | 1023.9 hPa | 0 mm | - | 51 W/m² | - |
| 1788180243 | 15° C | 97% | 1023.9 hPa | 0 mm | - | 69 W/m² | - |
| 1788179644 | 15° C | 98% | 1023.9 hPa | 0 mm | - | 49 W/m² | - |
| 1788179044 | 15° C | 98% | 1023.9 hPa | 0 mm | - | 44 W/m² | - |
| 1788178444 | 14.44° C | 98% | 1023.9 hPa | 0 mm | - | 42 W/m² | - |
| 1788177848 | 13.89° C | 98% | 1023.9 hPa | 0 mm | - | 26 W/m² | - |
| 1788177244 | 13.33° C | 98% | 1023.9 hPa | 0 mm | - | 37 W/m² | - |
| 1788176643 | 13.33° C | 97% | 1023.9 hPa | 0 mm | - | 33 W/m² | - |
| 1788176044 | 13.33° C | 97% | 1023.9 hPa | 0 mm | - | 30 W/m² | - |
| 1788175445 | 13.33° C | 97% | 1023.9 hPa | 0 mm | - | 25 W/m² | - |
| 1788174843 | 12.78° C | 97% | 1023.9 hPa | 0 mm | - | 21 W/m² | - |
| 1788174244 | 12.78° C | 97% | 1023.9 hPa | 0 mm | - | 16 W/m² | - |
| 1788173644 | 12.78° C | 97% | 1023.9 hPa | 0 mm | - | 14 W/m² | - |
| 1788173043 | 12.78° C | 97% | 1023.9 hPa | 0 mm | - | 11 W/m² | - |
| 1788172449 | 12.78° C | 97% | 1023.9 hPa | 0 mm | - | 7 W/m² | - |
| 1788171844 | 13.33° C | 97% | 1023.9 hPa | 0 mm | - | 5 W/m² | - |
| 1788171244 | 13.89° C | 97% | 1023.9 hPa | 0 mm | - | 0 W/m² | - |
| 1788170644 | 13.33° C | 97% | 1023.9 hPa | 0 mm | - | 0 W/m² | - |
| 1788170043 | 13.89° C | 97% | 1023.9 hPa | 0 mm | - | 0 W/m² | - |
| 1788169444 | 13.89° C | 97% | 1023.9 hPa | 0 mm | - | 0 W/m² | - |
* Rain latest hour (hover to see other rain measurements)
** Current wind speed in m/s (hover to see current wind gust speed)